#timestamp,LO_Frequency,Hit,StdDev 
1538946015.4,286046998.5,N
1538946035.3,286046998.1,N
1538946055.1,286046998.8,N
1538946056.0,286046998.8,N
1538946075.8,286046999.1,N
1538946095.7,286046999.5,N
1538946115.5,286046998.9,N
1538946135.3,286046997.0,Y
1538946155.2,286046999.2,P
1538946175.0,286046999.4,P
1538946175.9,286046999.4,P
1538946195.8,286046998.4,Y
1538946215.6,286047000.6,P
1538946235.4,286047001.2,N
1538946255.3,286047000.9,N
1538946275.1,286046998.3,N
1538946295.8,286047000.9,N
1538946315.7,286047001.0,N
1538946335.5,286047000.9,N
1538946355.4,286047000.8,N
1538946375.2,286046999.5,N
1538946395.0,286046998.3,N
1538946395.9,286046998.3,N
1538946415.8,286046998.1,N
1538946435.6,286046998.6,N
1538946455.5,286046998.7,N
1538946475.3,286046998.7,N
1538946495.1,286046998.4,N
1538946515.9,286047000.8,N
1538946535.7,286047000.3,N
1538946555.5,286047000.2,N
1538946575.4,286047000.6,N
1538946595.2,286046999.9,N
1538946615.1,286047002.8,N
1538946616.0,286047002.8,N
1538946635.8,286047002.7,N
1538946655.6,286047002.6,N
1538946675.5,286047002.3,N
1538946695.3,286047002.7,N
1538946715.1,286047000.4,N
1538946735.9,286046999.9,N
1538946755.7,286047002.0,N
1538946775.6,286047002.5,N
1538946795.4,286047002.1,N
1538946815.2,286047001.7,N
1538946835.1,286047002.6,N
1538946836.0,286047002.6,N
1538946855.8,286047001.9,N
1538946875.6,286047002.0,N
1538946895.5,286047002.7,N
1538946915.3,286047002.3,N
1538946935.2,286047000.0,N
1538946955.9,286046999.8,N
1538946975.7,286047000.3,N
1538946995.6,286047000.2,N
1538947015.4,286047002.8,N
1538947035.2,286047002.8,N
1538947055.1,286047002.5,N
1538947056.0,286047002.5,N
1538947075.8,286047002.2,N
1538947095.7,286047002.0,N
1538947115.5,286047002.2,N
1538947135.3,286047002.6,N
1538947155.2,286046999.8,N
1538947175.0,286047000.1,N
1538947175.9,286047000.1,N
1538947195.8,286047002.8,N
1538947215.6,286047001.1,N
1538947235.4,286047000.2,N
1538947255.3,286047000.4,N
1538947275.1,286047000.3,N
1538947295.8,286047000.1,N
1538947315.7,286047000.9,N
1538947335.5,286047000.1,N
1538947355.4,286046999.8,N
1538947375.2,286046999.8,N
1538947395.0,286047002.7,N
1538947395.9,286047002.7,N
1538947415.8,286047002.7,N
1538947435.6,286047000.0,N
1538947455.4,286047000.0,N
1538947475.3,286047000.1,N
1538947495.1,286046999.7,N
1538947515.9,286046999.9,N
1538947535.7,286047002.8,N
1538947555.5,286047002.8,N
1538947575.4,286046999.7,N
1538947595.2,286047000.3,N
1538947615.1,286046998.2,N
1538947616.0,286046998.2,N
1538947635.8,286047000.6,N
1538947655.6,286046998.1,N
1538947675.5,286046998.6,N
1538947695.3,286046998.7,N
1538947715.1,286046998.3,N
1538947735.9,286046998.3,N
1538947755.7,286046998.1,N
1538947775.6,286047001.0,N
1538947795.4,286047000.4,N
1538947815.2,286046999.9,N
1538947835.1,286046998.2,N
1538947836.0,286046998.2,N
1538947855.8,286047001.0,N
1538947875.6,286047000.5,N
1538947895.5,286047000.9,N
1538947915.3,286047000.7,N
1538947935.2,286046998.4,N
1538947955.9,286046996.6,N
1538947975.7,286046997.3,N
1538947995.6,286046996.8,N
1538948015.4,286046997.1,N
1538948035.2,286046997.4,N
1538948055.1,286046998.0,N
1538948056.0,286046998.0,N
1538948075.8,286046995.2,N
1538948095.7,286046997.3,N
1538948115.5,286046997.9,N
1538948135.3,286046997.6,N
1538948155.2,286046997.3,N
1538948175.0,286046995.9,N
1538948175.9,286046995.9,N
1538948195.8,286046996.2,N
1538948215.6,286046995.1,Y
1538948235.4,286046996.9,P
1538948255.3,286046998.8,N
1538948275.1,286046998.3,N
1538948295.8,286047000.8,N
1538948315.7,286047000.7,N
1538948335.5,286047000.8,N
1538948355.4,286047000.5,N
1538948375.2,286047000.2,N
1538948395.0,286047000.3,N
1538948395.9,286047000.3,N
1538948415.8,286046999.9,N
1538948435.6,286047000.9,N
1538948455.4,286046998.5,N
1538948475.3,286047001.0,N
1538948495.1,286047001.0,N
1538948515.9,286047000.7,N
1538948535.7,286046998.4,N
1538948555.5,286046998.7,N
1538948575.4,286047001.1,N
1538948595.2,286046998.5,N
1538948615.0,286047000.7,N
1538948615.9,286047000.7,N
1538948635.8,286047001.0,N
1538948655.6,286047001.0,N
1538948675.5,286047001.1,N
1538948695.3,286047000.6,N
1538948715.1,286047000.8,N
1538948735.9,286046998.6,N
1538948755.7,286046998.3,N
1538948775.5,286046998.4,N
1538948795.4,286046999.0,N
1538948815.2,286046998.4,N
1538948835.1,286046998.8,N
1538948836.0,286046998.8,N
1538948855.8,286046998.4,N
1538948875.6,286046996.7,Y
1538948895.5,286046996.7,P
1538948915.3,286046996.6,N
1538948935.1,286046999.2,N
1538948955.9,286046999.5,N
1538948975.7,286046999.3,N
1538948995.6,286046996.5,N
1538949015.4,286046999.5,N
1538949035.2,286046997.0,N
1538949055.1,286046996.9,N
1538949056.0,286046996.9,N
1538949075.8,286046998.9,N
1538949095.7,286046998.2,N
1538949115.5,286046999.2,N
1538949135.3,286046996.7,N
1538949155.2,286046999.3,N
1538949175.9,286046999.4,N
1538949195.7,286046999.0,N
1538949215.6,286046998.4,N
1538949235.4,286046998.3,N
1538949255.3,286046999.6,N
1538949275.1,286046999.2,N
1538949276.0,286046999.2,N
1538949295.8,286046999.5,N
1538949315.7,286046999.0,N
1538949335.5,286046999.5,N
1538949355.3,286046999.2,N
1538949375.2,286046999.6,N
1538949395.0,286046997.5,N
1538949395.9,286046997.5,N
1538949415.8,286046996.7,N
1538949435.6,286046999.6,N
1538949455.4,286046999.6,N
1538949475.3,286046996.6,Y
1538949495.1,286047001.1,P
1538949515.9,286047001.1,N
1538949535.7,286046998.7,N
1538949555.5,286047000.6,N
1538949575.4,286047001.2,N
1538949595.2,286046998.5,N
